Lincoln, NE

10:20 PM CDT on October 20, 2019 (GMT -0500)
Lincoln Municipal

Weather History for KLNK - August, 2019

Change the Weather History Date:

Friday, August 23, 2019

  Actual Average Record
Temperature  
Mean Temperature 74 °F 74 °F  
Max Temperature 80 °F 86 °F 103 °F (1948)
Min Temperature 67 °F 63 °F 43 °F (1891)
Degree Days  
Heating Degree Days 0 0  
Month to date heating degree days 0 0  
Since 1 June heating degree days 6 17  
Since 1 July heating degree days 0 1  
Cooling Degree Days 9 10  
Month to date cooling degree days 260 256  
Year to date cooling degree days 1006 967  
Since 1 June cooling degree days 934 888  
Growing Degree Days 23 (Base 50)    
Moisture  
Dew Point 62 °F    
Average Humidity 72    
Maximum Humidity 81    
Minimum Humidity 62    
Precipitation  
Precipitation 0.00 in 0.11 in 1.28 in (1962)
Month to date precipitation 2.11 2.55  
Year to date precipitation 23.98 20.64  
Snow  
Snow 0.00 in 0.00 in 0.00 in (2006)
Month to date snowfall 0.0 0.0  
Since 1 June snowfall 0.0 0.0  
Since 1 July snowfall 0.0 0.0  
Snow Depth 0.00 in    
Sea Level Pressure  
Sea Level Pressure 30.05 in    
Wind  
Wind Speed 10 mph (ESE)    
Max Wind Speed 17 mph    
Max Gust Speed 25 mph    
Visibility 10 miles    
Events      
T = Trace of Precipitation, MM = Missing Value Source: NWS Daily Summary

Daily Weather History Graph

Daily Weather History Graph

Search for Another Location

Airport or City:

Astronomy

Aug. 23, 2019 Rise Set
Actual Time 6:44 AM CDT 8:13 PM CDT
Civil Twilight 6:16 AM CDT 8:42 PM CDT
Nautical Twilight 5:41 AM CDT 9:17 PM CDT
Astronomical Twilight 5:04 AM CDT 9:53 PM CDT
Moon 12:03 AM CDT (8/23) 2:26 PM CDT (8/23)
Length of Visible Light 14h 26m
Length of Day
13h 28m
Waning Gibbous, 49% of the Moon is Illuminated
Aug 23
Waning Gibbous
Aug 30
New
Sep 5
First Quarter
Sep 13
Full
Sep 21
Last Quarter

Hourly Weather History & Observations

Time (CDT) Temp. Dew Point Humidity Pressure Visibility Wind Dir Wind Speed Gust Speed Precip Events Conditions
12:54 AM 71.1 °F 60.1 °F 68% 30.04 in 10.0 mi East 9.2 mph - N/A   Overcast
1:54 AM 70.0 °F 60.1 °F 71% 30.01 in 10.0 mi East 9.2 mph - N/A   Scattered Clouds
2:54 AM 68.0 °F 60.1 °F 76% 30.00 in 10.0 mi ESE 6.9 mph 16.1 mph N/A   Clear
3:29 AM 68.0 °F 59.0 °F 73% 30.04 in 10.0 mi ESE 3.5 mph - N/A   Overcast
3:54 AM 69.1 °F 60.1 °F 73% 30.02 in 10.0 mi ESE 6.9 mph - N/A   Overcast
4:08 AM 69.1 °F 60.1 °F 73% 30.05 in 10.0 mi SE 5.8 mph - N/A   Overcast
4:54 AM 68.0 °F 60.1 °F 76% 30.04 in 10.0 mi ESE 5.8 mph - N/A   Overcast
5:54 AM 66.9 °F 59.0 °F 76% 30.03 in 10.0 mi ESE 11.5 mph - N/A   Mostly Cloudy
6:54 AM 66.9 °F 59.0 °F 76% 30.05 in 10.0 mi East 5.8 mph - N/A   Mostly Cloudy
7:05 AM 66.9 °F 59.0 °F 76% 30.08 in 10.0 mi ENE 8.1 mph - N/A   Overcast
7:54 AM 66.9 °F 60.1 °F 79% 30.07 in 10.0 mi ESE 5.8 mph - N/A   Overcast
8:01 AM 66.9 °F 60.1 °F 79% 30.09 in 10.0 mi East 6.9 mph - N/A   Overcast
8:36 AM 68.0 °F 60.1 °F 76% 30.09 in 10.0 mi East 6.9 mph - N/A   Overcast
8:54 AM 68.0 °F 60.1 °F 76% 30.06 in 10.0 mi ESE 8.1 mph - N/A   Mostly Cloudy
9:54 AM 73.0 °F 63.0 °F 71% 30.07 in 10.0 mi East 6.9 mph - N/A   Mostly Cloudy
10:54 AM 75.9 °F 66.0 °F 71% 30.07 in 10.0 mi SSE 11.5 mph - N/A   Overcast
12:21 PM 78.1 °F 66.0 °F 66% 30.09 in 10.0 mi ESE 11.5 mph - N/A   Mostly Cloudy
12:54 PM 79.0 °F 66.0 °F 64% 30.06 in 10.0 mi ESE 13.8 mph - N/A   Mostly Cloudy
1:54 PM 79.0 °F 64.9 °F 62% 30.05 in 10.0 mi SE 13.8 mph 25.3 mph N/A   Mostly Cloudy
2:54 PM 79.0 °F 64.9 °F 62% 30.04 in 10.0 mi ESE 13.8 mph - N/A   Mostly Cloudy
3:54 PM 78.1 °F 64.9 °F 64% 30.04 in 10.0 mi ESE 13.8 mph - N/A   Scattered Clouds
4:54 PM 78.1 °F 66.0 °F 66% 30.05 in 10.0 mi ESE 11.5 mph - N/A   Mostly Cloudy
5:54 PM 78.1 °F 64.0 °F 62% 30.04 in 10.0 mi ESE 12.7 mph - N/A   Partly Cloudy
6:54 PM 77.0 °F 64.0 °F 64% 30.05 in 10.0 mi ESE 10.4 mph - N/A   Clear
7:54 PM 75.9 °F 64.0 °F 67% 30.04 in 10.0 mi East 13.8 mph - N/A   Clear
8:54 PM 75.0 °F 64.0 °F 69% 30.03 in 10.0 mi East 13.8 mph - N/A   Clear
9:54 PM 73.9 °F 63.0 °F 68% 30.03 in 10.0 mi East 11.5 mph - N/A   Clear
10:54 PM 73.0 °F 62.1 °F 68% 30.07 in 10.0 mi ESE 11.5 mph - N/A   Clear
11:54 PM 71.1 °F 61.0 °F 70% 30.08 in 10.0 mi ESE 10.4 mph - N/A   Clear